Regional Weather Roundup
Issued by NWS Grand Forks, ND

Home | Current Version | Previous Version | Text Only | Print | Product List | Glossary Off
Versions: 1 2 3 4 5 6 7 8 9 10 11 12 13 14 15 16 17 18 19 20 21 22 23 24 25 26 27 28 29 30 31 32 33 34 35 36 37 38 39 40 41 42 43 44 45 46 47 48 49 50

000
ASUS43 KFGF 251410
RWRFGF
PRAIRIE TO PINES  WEATHER ROUNDUP
NATIONAL WEATHER SERVICE EASTERN NORTH DAKOTA/GRAND FORKS ND
900 AM CDT WED APR 25 2018

 **SATELLITE DATA USED TO AUGMENT SKY COVER AT AUTOMATED STATIONS**
 *****  WEATHER ACROSS EASTERN NORTH DAKOTA  *****

CITY           SKY/WX    TMP DP  RH WIND       PRES   REMARKS
GRAND FORKS    FAIR      45  35  68 SW13      30.14F
GRAND FRKS AFB FAIR      48  32  55 SW13      30.13F
GRAND FRKS NWS   N/A     43  34  70 SW6       30.13F
DEVILS LAKE    FAIR      44  30  57 SW14      30.12F
FARGO          FAIR      44  30  57 S13       30.22F
WAHPETON ARPT  FAIR      41  32  70 S7        30.27F
$$

 ***** WEATHER ACROSS CENTRAL AND WESTERN NORTH DAKOTA  *****

CITY           SKY/WX    TMP DP  RH WIND       PRES   REMARKS
BISMARCK       FAIR      45  31  58 SW9       30.18F
MINOT          FAIR      49  30  48 SW20G25   30.05F
JAMESTOWN      FAIR      47  31  53 SW12      30.17F
MINOT AFB      FAIR      50  29  44 SW18      30.03F
GARRISON         N/A     43  32  65 SW14      30.11F
WILLISTON      FAIR      45  31  58 S13       30.03F
DICKINSON      FAIR      47  28  47 SW16      30.10F
HETTINGER      FAIR      41  30  65 SW8       30.18F
$$

 *****  OTHER AIRPORT OBSERVATIONS IN OUR AREA  *****

CITY           SKY/WX    TMP DP  RH WIND       PRES   REMARKS
WALHALLA       NOT AVBL
GRAFTON AIRPOR FAIR      48  32  53 SW13      30.13F
VALLEY CITY AR FAIR      45  34  65 SW14      30.20F
CANDO          FAIR      48  32  53 W16       30.11F
CAVALIER APRT    N/A     48  34  57 SW10      30.07F
GWINNER          N/A     41  34  75 SW13      30.23F
SHEYENNE NWR     N/A     42  37  81 S7        29.95S
ROLLA          FAIR      43  32  65 SW16      30.05F
 ***** THE ABOVE OBSERVATIONS ARE NON NWS ARE NOT QUALITY
       CONTROLLED AND MAY MIS-REPORT RAIN FOR SNOW...
$$

  *****  WEATHER ACROSS NORTHERN MINNESOTA  *****

CITY           SKY/WX    TMP DP  RH WIND       PRES   REMARKS
FLAG ISLAND    FAIR      34  27  75 S15       30.09F WCI  24
WARROAD        FAIR      45  28  53 SW17      30.12F
ROSEAU         FAIR      45  30  57 S17       30.11F
HALLOCK        FAIR      46  32  57 S15       30.10F
THF RVR FALLS  FAIR      42  28  57 S16       30.17F
BAUDETTE       FAIR      42  26  53 S10       30.16F
WASKISH        PTSUNNY   43  25  49 S6        30.19F
CROOKSTON      FAIR      43  34  70 S16       30.18F
STEPHEN NDAWN    N/A     45  34  65 S14         N/A
GREENBUSH NDAW   N/A     45  34  65 S15         N/A
$$
  *****  WEATHER ACROSS CENTRAL AND WEST MINNESOTA  *****

CITY           SKY/WX    TMP DP  RH WIND       PRES   REMARKS
FOSSTON        FAIR      36  27  69 S16       30.21F
BEMIDJI        FAIR      39  24  54 S8        30.21F
PARK RAPIDS    FAIR      40  25  55 S9        30.23F
ELBOW LAKE     FAIR      39  30  72 W6        30.28S
WADENA         FAIR      39  27  60 SW6       30.25S
DETROIT LAKES  FAIR      37  28  70 S8        30.24F
MOORHEAD       FAIR      39  30  70 S9        30.24F
FERGUS FALLS   FAIR      39  28  65 S7        30.25F
MORRIS MN      FAIR      39  28  65 W3        30.27S
STAPLES        FAIR      39  25  56 S7        30.25S
$$
  *****  WEATHER ELSEWHERE ACROSS MINNESOTA  *****

CITY           SKY/WX    TMP DP  RH WIND       PRES   REMARKS
DULUTH         FAIR      38  25  59 S3        30.22F
INTRNTL FALLS  FAIR      40  25  55 S9        30.18F
ELY            FAIR      36  21  55 SW3       30.21F
CLOQUET        FAIR      37  21  52 CALM      30.23F
WHEATON        FAIR      41  28  60 S6        30.29F
BRAINERD       FAIR      39  24  55 VRB3      30.25F
HIBBING        FAIR      36  22  56 S5        30.22F
ALEXANDRIA     FAIR      41  26  55 SW7       30.26F
SAINT CLOUD    FAIR      40  26  57 E6        30.25F
MINNEAPOLIS    FAIR      42  27  55 VRB5      30.25F
$$

  *****  WEATHER ACROSS SOUTH DAKOTA  *****

CITY           SKY/WX    TMP DP  RH WIND       PRES   REMARKS
SIOUX FALLS    FAIR      42  29  59 NE6       30.29S
BROOKINGS      FAIR      37  32  82 NW3       30.28S
WATERTOWN      FAIR      38  31  76 CALM      30.26F
HURON          FAIR      42  34  73 CALM      30.30S
SISSETON         N/A     44  31  60 S7        30.25F
ABERDEEN       FAIR      42  34  73 S7        30.27F
MITCHELL       FAIR      40  33  76 CALM      30.31F
PIERRE         FAIR      36  31  82 SW7       30.27F
MOBRIDGE       FAIR      38  32  79 SE7       30.21F
RAPID CITY     FAIR      34  27  75 SE5       30.22F
$$

  *****  SOME WEATHER IN NEARBY STATES *****

CITY           SKY/WX    TMP DP  RH WIND       PRES   REMARKS
GLASGOW MT     FAIR      44  35  70 SE5       29.99S
GREAT FALLS MT FAIR      49  23  36 S17G25    30.06R
CHEYENNE WY    FAIR      32  26  78 SW3       30.32S
SCOTTSBLUFF NE FAIR      35  31  85 CALM      30.34S
OMAHA NE       LGT RAIN  43  40  89 N12       30.25R
DES MOINES IA  CLOUDY    50  34  54 NE12      30.19S
DAVENPORT IA   FAIR      51  34  52 NE17      30.16F
CHICAGO IL     FAIR      47  31  53 N20       30.11R
EAU CLAIRE WI  FAIR      40  27  59 NE9       30.22F
LA CROSSE WI   FAIR      45  34  65 NW6       30.21S
$$

  *****  SOME NATIONAL WEATHER *****

CITY           SKY/WX    TMP DP  RH WIND       PRES   REMARKS
LA GUARDIA NY  LGT RAIN  60  55  83 SE15G28   29.87F
RALEIGH NC     CLOUDY    62  60  93 S3        29.74S
ATLANTA GA     CLOUDY    59  54  83 NW15G21   29.94R
NEW ORLEANS LA FAIR      70  56  61 N6        30.08R
OKLAHOMA CITY  RAIN      45  44  97 N14       30.23R FOG
ALBUQUERQUE NM FAIR      48  33  56 NE16      30.29R
SALT LAKE CITY FAIR      52  25  35 S12       30.26R
LOS ANGELES CA CLOUDY    57  50  77 E3        30.06S HAZE
BOISE ID       FAIR      49  32  52 SE8       30.18R
SEATTLE WA     FAIR      54  39  57 NE10      30.10R
$$

*** WEATHER ACROSS MANITOBA...SASKATCHEWAN AND ONTARIO ***
                ***ONTARIO***

CITY           SKY/WX    TMP DP  RH WIND       PRES   REMARKS
GERALDTON      MOSUNNY   32  19  59 NW5       30.16F
THUNDER BAY    MOSUNNY   37  23  56 SW3       30.22F
SIOUX LOOKOUT  PTSUNNY   37  23  56 SW9       30.10F
TORONTO        LGT RAIN  48  46  93 E5        29.86F
BIG TROUT LK   SUNNY     37  27  65 S10G17    29.77F
PICKLE LAKE    PTSUNNY   37  21  52 SW14G21   30.01F
DRYDEN         SUNNY     41  21  45 S13G18    30.10F
KENORA         NOT AVBL
$$
                *** MANITOBA***

CITY           SKY/WX    TMP DP  RH WIND       PRES   REMARKS
BRANDON        PTSUNNY   45  34  65 SW12      29.97F
DAUPHIN        SUNNY     55  32  41 SW20G26   29.83F
ISLAND LAKE    PTSUNNY   45  27  49 SW12G18   29.70F
PILOT MOUND      N/A     48  32  53 SW16        N/A
THE PAS        CLOUDY    48  32  53 W7        29.78S
THOMPSON       PTSUNNY   45  30  57 NW12G22   29.65S
WINNIPEG       MOSUNNY   50  30  46 SW17G23   30.00F
LYNN LAKE      CLOUDY    37  32  81 NW14G22   29.72R
CHURCHILL      FLURRIES  32  32 100 N13       29.51R WCI  22
GILLAM         PTSUNNY   45  32  61 W13       29.55F
$$
                ***SASKATCHEWAN***

CITY           SKY/WX    TMP DP  RH WIND       PRES   REMARKS
ESTEVAN        CLOUDY    45  30  57 SW21G29   29.95F
KINDERSLEY     CLOUDY    45  32  61 N20       29.95R
LLOYDMINSTER   NOT AVBL
PRINCE ALBERT  CLOUDY    48  28  46 N17G23    29.89R
REGINA         CLOUDY    48  30  49 SW10      29.85F
YORKTON        SUNNY     48  32  53 SW14G23   29.82F
N. BATTLEFORD  SUNNY     46  30  53 NW8       29.96R
LA RONGE       MOSUNNY   46  30  53 NW9       29.89R
SASKATOON      CLOUDY    46  32  57 NW9       29.90R
SWIFT CURRENT  PTSUNNY   48  25  40 W21G28    29.86S
$$
NOTE: THESE ARE AUTOMATED STATIONS WITH LIMITED QUALITY CONTROL
      "FAIR" INDICATES FEW OR NO CLOUDS BELOW 12,000 FEET WITH NO
      SIGNIFICANT WEATHER AND/OR OBSTRUCTIONS TO VISIBILITY.
      SKY/WX - SKY CONDITION AND SIGNIFICANT WEATHER.
      TMP - AIR TEMPERATURE.    DP   - DEWPOINT TEMPERATURE.
      RH  - RELATIVE HUMIDITY.  PRES - PRESSURE.
      HX  - HEAT INDEX.         WCI  - WIND CHILL INDEX.
$




USA.gov is the U.S. government's official web portal to all federal, state and local government web resources and services.